Wind_Speed
16 16 17 17 17 17 17 17 16 16 15 15 15 14 15 16 17 17 17 9 10 14 13 16 13 11 12 7 9 7 6 5 1 3 4 6 9 8 4 6 8 9 4 3 18
17 18 18 19 19 19 18 18 19 18 17 16 16 16 15 16 18 19 7 7 7 16 21 23 19 17 10 8 6 9 8 6 4 5 8 10 11 13 7 7 11 11 9 12 22
19 19 19 20 20 20 20 21 21 20 19 17 15 16 15 14 14 3 5 2 5 12 16 14 11 14 13 10 11 6 13 8 11 11 14 14 14 11 9 10 13 16 14 19 24
19 20 21 21 21 21 22 22 22 21 20 18 15 15 13 8 5 4 5 2 2 14 17 15 16 16 13 11 12 11 16 15 20 17 19 15 19 15 9 14 1 12 19 25 27
19 20 21 21 21 21 21 20 20 20 19 16 15 14 10 7 12 12 10 9 9 15 19 17 16 15 13 9 12 15 20 20 20 17 16 19 19 18 20 10 8 11 23 25 26
22 23 24 23 22 22 20 22 21 18 15 12 12 12 7 12 9 10 9 8 12 15 17 17 10 11 13 15 15 16 17 19 19 22 17 19 20 15 17 4 12 13 20 23 26
23 23 22 22 21 19 19 16 17 15 12 9 8 8 8 12 6 5 2 9 10 13 12 15 13 12 5 12 12 15 17 18 21 20 19 17 21 17 16 3 9 13 16 20 24
21 21 20 20 21 19 17 18 15 11 8 5 4 3 5 6 6 8 12 13 13 13 14 14 14 16 19 16 16 16 13 14 16 13 13 11 17 14 3 8 8 10 14 19 25
20 21 22 21 21 19 19 19 9 6 2 3 1 2 2 3 3 4 8 10 10 10 12 9 11 17 14 15 16 15 15 18 15 11 6 12 18 16 7 12 16 18 15 19 24
21 23 22 20 21 16 17 11 7 4 3 3 2 3 1 3 5 5 5 9 5 6 8 13 12 13 15 15 18 20 19 19 17 17 14 15 19 15 24 21 21 21 19 16 25
22 23 21 18 18 17 16 8 5 1 3 3 3 4 3 10 3 0 5 13 17 12 14 16 14 20 22 21 22 23 23 23 19 10 17 15 20 17 18 26 23 25 19 19 26
23 23 18 18 9 15 13 7 8 5 7 3 4 5 7 7 2 1 3 7 12 15 13 11 16 20 22 19 22 24 24 24 22 16 20 18 21 16 17 25 21 26 19 19 18
22 21 17 19 4 12 8 9 11 8 6 1 3 4 5 4 4 1 4 3 10 13 14 16 18 4 12 18 23 25 23 23 24 20 18 17 22 21 16 18 20 21 20 17 20
21 21 19 18 6 10 2 11 12 4 5 3 2 1 4 7 3 3 3 6 4 8 7 12 14 16 16 17 18 21 20 24 22 21 17 17 14 17 13 17 14 18 17 17 18
20 22 20 16 11 3 6 9 6 2 5 3 2 2 8 4 7 3 3 4 8 9 6 9 6 11 15 18 16 19 19 22 20 20 19 23 12 13 13 14 15 17 18 15 16
20 20 18 12 5 4 5 6 2 5 2 2 3 4 3 1 2 4 2 5 5 8 9 14 13 9 13 9 12 14 15 15 14 14 15 16 18 15 13 8 13 17 15 14 11
19 18 12 6 2 6 4 1 5 4 3 3 3 6 6 3 1 5 5 5 5 6 5 14 7 9 14 14 14 10 14 12 13 13 13 15 13 8 10 14 8 12 15 10 9
19 16 4 4 6 5 2 5 5 2 1 2 4 8 4 6 1 5 3 3 8 7 10 7 10 4 9 15 14 7 14 10 14 10 9 20 10 11 14 10 6 5 8 11 16
18 12 4 4 5 6 6 6 3 1 2 5 6 6 2 0 4 4 3 4 6 10 7 9 6 4 8 12 11 6 6 9 10 12 10 13 22 17 13 12 7 13 12 12 13
17 9 5 5 5 4 6 3 2 1 3 3 3 2 3 3 5 4 2 5 6 10 8 5 10 7 6 6 10 10 4 8 6 11 14 9 17 13 14 17 10 14 13 14 13
12 6 6 4 4 7 6 1 3 1 3 3 1 3 3 4 6 6 2 1 11 12 13 9 7 13 9 7 9 7 12 11 13 8 15 11 11 11 12 10 13 10 13 13 12
5 4 4 2 7 3 5 1 0 3 3 2 3 3 3 4 7 4 5 5 11 16 11 7 7 10 17 4 5 6 5 9 10 11 13 14 17 10 1 6 7 9 10 10 6
7 6 5 4 5 6 3 5 4 4 2 3 4 2 1 4 5 3 7 6 7 14 9 9 7 10 14 11 9 4 3 7 8 10 16 16 14 4 2 3 7 10 11 8 5
4 3 3 4 4 7 4 6 5 3 5 3 5 6 6 9 6 7 12 7 11 16 4 7 11 12 14 17 13 11 7 5 9 11 16 13 16 19 9 10 10 11 10 11 6
3 1 2 1 4 6 5 2 7 6 4 5 5 6 6 8 11 13 9 14 16 11 7 5 12 16 15 17 17 17 15 15 13 13 12 14 17 19 9 10 11 8 6 9 12
4 4 2 5 4 6 5 8 12 6 5 6 8 4 6 8 9 11 14 14 16 14 10 13 12 14 16 20 21 14 16 13 14 13 13 15 17 7 4 5 6 7 12 11 11
4 4 4 3 5 6 8 8 6 3 8 9 4 7 9 6 12 20 23 24 21 19 17 15 11 12 16 16 17 14 17 8 8 8 10 14 10 7 3 5 10 11 11 15 16
Wind_Direction
349 346 342 340 336 333 329 325 319 315 312 308 306 307 311 314 314 312 304 265 244 216 203 162 170 181 191 241 243 268 257 249 247 330 5 18 336 352 311 233 205 188 162 147 174
337 336 334 331 327 325 322 317 312 309 307 306 302 301 301 307 311 307 278 253 216 205 186 174 178 177 200 233 232 247 274 298 349 324 318 318 319 314 268 228 204 197 174 157 168
331 330 327 323 320 318 316 312 307 303 300 299 301 300 301 312 317 202 101 111 196 192 182 180 194 188 222 225 217 235 264 322 300 303 313 310 303 322 269 241 227 206 190 172 171
326 327 325 322 319 317 316 310 305 298 292 293 295 296 303 309 292 224 224 7 137 169 183 188 186 205 234 228 230 256 251 266 285 297 303 306 314 306 291 284 303 209 189 184 182
325 327 327 322 319 318 318 313 307 297 295 292 285 283 294 255 253 258 265 286 189 182 190 196 204 222 253 255 258 247 269 276 276 280 288 303 299 301 298 280 209 185 184 188 191
333 334 333 331 326 326 323 319 310 309 300 293 281 268 256 252 255 261 265 246 197 188 204 208 221 231 281 270 268 276 287 283 277 278 277 286 289 289 291 310 199 198 202 200 199
334 336 332 330 327 326 323 317 309 304 301 303 288 260 237 246 264 240 170 174 185 195 210 218 230 243 259 261 266 269 271 274 264 262 263 275 276 257 266 233 207 216 218 217 212
335 334 333 333 334 334 332 325 316 305 299 311 293 223 247 269 277 261 236 227 234 242 237 237 244 252 252 260 272 259 271 272 267 250 260 241 259 258 344 272 249 267 250 233 218
338 339 343 341 340 342 339 332 332 323 353 339 53 177 138 314 305 260 224 233 224 234 232 234 222 233 233 240 256 237 256 261 260 276 262 251 270 271 269 272 275 276 271 241 224
341 344 346 345 343 348 347 349 11 57 357 61 84 219 204 338 299 253 226 191 203 201 202 205 222 231 227 238 245 251 242 247 258 273 257 261 266 264 273 275 270 264 273 252 227
345 344 349 350 348 352 4 8 351 64 2 322 324 295 353 331 313 246 231 229 231 231 234 207 232 234 243 243 259 268 269 272 283 257 274 265 278 275 276 272 263 262 259 253 234
345 347 353 350 359 2 20 58 39 327 308 304 310 301 313 347 315 245 159 202 200 231 227 234 243 256 258 258 258 253 261 260 263 257 271 275 271 278 276 268 263 258 255 252 229
346 347 353 351 17 13 31 23 7 355 258 221 276 297 343 336 332 21 208 252 246 253 251 245 263 286 256 245 247 248 251 259 256 261 243 266 270 267 252 246 250 249 246 245 226
345 344 348 359 19 350 345 347 357 13 250 93 163 110 330 302 231 260 243 262 231 293 278 260 285 277 239 245 255 262 253 246 260 252 252 252 275 276 283 272 257 247 227 233 218
344 341 346 347 327 356 306 339 350 338 234 56 59 312 326 308 342 117 280 218 272 280 256 274 296 282 254 260 271 272 276 266 247 252 254 253 254 259 261 263 261 249 226 212 208
344 340 341 349 20 346 332 337 357 230 154 144 318 325 319 168 87 311 279 230 278 272 253 270 280 261 276 281 271 281 269 253 269 268 253 237 255 265 258 272 271 233 226 227 220
346 341 341 2 323 340 339 315 249 272 150 51 345 328 317 324 283 29 39 63 341 296 313 321 284 240 236 263 260 238 243 244 233 226 242 245 263 265 288 277 272 294 286 280 264
345 338 330 357 359 352 328 243 257 51 9 356 304 289 266 345 210 341 295 54 47 343 304 330 328 158 206 232 269 256 259 270 286 279 328 344 220 246 236 261 303 301 294 291 282
342 341 288 305 344 343 267 245 16 322 347 323 275 255 181 131 294 308 356 31 36 23 340 312 306 325 266 253 239 142 236 305 247 263 274 216 232 269 254 247 47 344 338 324 309
340 331 246 272 319 322 255 331 180 357 314 249 289 300 284 2 296 318 300 81 4 357 345 327 296 315 309 278 227 261 182 214 193 255 248 240 273 279 280 279 333 321 339 335 332
338 297 272 248 310 250 265 36 188 151 265 254 272 273 291 317 315 310 332 12 16 347 323 309 269 302 271 232 293 215 221 242 272 222 257 271 259 259 253 315 315 330 346 344 338
325 268 287 213 247 249 226 199 3 220 191 219 271 290 285 302 288 286 293 328 358 338 326 16 298 292 296 331 283 269 307 294 270 234 242 270 278 303 255 286 331 346 350 354 348
310 280 293 200 253 213 164 217 248 239 215 219 231 238 304 286 281 263 313 326 322 332 342 338 296 299 266 193 200 248 334 298 269 257 267 278 278 166 129 218 351 356 0 12 34
302 267 178 215 277 294 226 225 224 206 254 257 290 260 257 261 227 284 296 307 307 306 349 271 281 278 287 319 323 296 285 278 279 285 293 279 277 272 36 360 354 351 356 359 56
261 75 315 270 195 260 262 310 238 224 220 231 210 242 287 281 277 272 290 307 313 299 258 291 282 284 279 281 287 285 286 284 266 288 277 297 302 298 21 351 343 349 10 32 48
290 293 230 268 251 248 187 237 250 218 245 207 256 320 289 268 292 306 314 303 303 300 306 307 285 284 283 277 272 275 272 272 276 273 277 276 283 34 17 321 47 28 57 65 62
272 276 279 156 218 239 236 251 247 243 232 257 278 298 278 336 330 298 290 284 276 282 283 280 278 281 272 285 286 264 265 263 292 266 322 287 1 349 21 69 30 23 36 49 59
Height
1544 1541 1539 1537 1534 1532 1529 1527 1525 1523 1521 1520 1519 1518 1515 1512 1510 1508 1506 1506 1505 1506 1508 1512 1516 1519 1520 1518 1516 1513 1500 1490 1488 1489 1487 1484 1485 1485 1490 1491 1496 1498 1500 1505 1508
1543 1540 1537 1535 1532 1529 1527 1524 1521 1519 1518 1517 1515 1514 1513 1511 1508 1505 1504 1502 1502 1503 1505 1507 1512 1515 1516 1515 1513 1508 1495 1485 1482 1485 1486 1485 1487 1485 1486 1488 1492 1496 1499 1502 1506
1541 1538 1536 1533 1530 1527 1524 1520 1518 1516 1514 1513 1512 1511 1510 1510 1507 1504 1501 1501 1501 1503 1509 1513 1515 1515 1511 1509 1507 1501 1499 1487 1487 1487 1488 1486 1484 1483 1481 1482 1484 1490 1497 1499 1502
1540 1537 1533 1530 1527 1524 1520 1517 1514 1511 1509 1509 1508 1508 1508 1509 1505 1500 1500 1501 1502 1504 1509 1510 1511 1512 1508 1504 1502 1502 1495 1494 1491 1490 1488 1486 1485 1481 1480 1479 1480 1484 1489 1493 1497
1538 1535 1531 1528 1524 1520 1517 1513 1509 1506 1505 1505 1504 1504 1505 1506 1503 1500 1500 1500 1501 1504 1507 1509 1509 1508 1504 1500 1500 1499 1494 1492 1490 1488 1487 1487 1483 1479 1478 1476 1478 1482 1484 1488 1492
1534 1531 1527 1523 1519 1516 1512 1508 1504 1502 1501 1501 1500 1500 1503 1504 1498 1498 1497 1498 1500 1504 1506 1507 1507 1507 1504 1501 1499 1495 1493 1490 1488 1485 1486 1485 1479 1477 1474 1474 1476 1480 1483 1485 1487
1532 1529 1525 1521 1517 1513 1509 1505 1502 1499 1498 1497 1497 1497 1500 1499 1496 1496 1497 1498 1500 1503 1504 1506 1507 1507 1501 1498 1495 1497 1494 1487 1483 1481 1479 1480 1475 1471 1470 1475 1475 1477 1481 1483 1485
1531 1527 1523 1519 1514 1510 1505 1501 1498 1496 1496 1495 1494 1495 1496 1494 1494 1494 1496 1499 1499 1501 1503 1504 1505 1505 1502 1500 1497 1493 1487 1489 1471 1470 1473 1479 1477 1462 1466 1470 1473 1474 1476 1478 1480
1529 1525 1520 1515 1511 1506 1502 1498 1496 1494 1494 1494 1494 1495 1493 1493 1493 1493 1494 1495 1497 1498 1499 1501 1502 1499 1497 1497 1492 1482 1490 1480 1473 1466 1472 1474 1472 1463 1465 1468 1469 1468 1469 1471 1474
1526 1522 1518 1513 1509 1505 1500 1496 1495 1494 1494 1494 1494 1497 1493 1493 1492 1491 1492 1494 1495 1495 1497 1497 1496 1491 1489 1488 1491 1482 1477 1474 1475 1466 1462 1468 1465 1463 1465 1464 1462 1462 1462 1464 1467
1524 1520 1516 1512 1508 1504 1500 1497 1500 1499 1496 1495 1494 1492 1492 1491 1487 1488 1489 1490 1492 1492 1486 1487 1487 1482 1479 1474 1475 1475 1474 1473 1465 1464 1467 1467 1463 1460 1461 1458 1456 1454 1454 1456 1459
1523 1519 1515 1511 1508 1505 1502 1503 1505 1507 1500 1494 1492 1490 1489 1488 1488 1487 1487 1488 1488 1484 1481 1483 1484 1473 1471 1472 1474 1475 1476 1472 1465 1463 1465 1461 1459 1454 1456 1452 1449 1448 1446 1448 1454
1522 1518 1515 1511 1508 1507 1505 1506 1505 1503 1502 1494 1493 1491 1490 1490 1487 1486 1487 1485 1483 1479 1476 1477 1466 1465 1470 1474 1475 1469 1470 1469 1466 1459 1453 1457 1457 1450 1445 1444 1443 1443 1441 1442 1445
1522 1518 1514 1511 1511 1508 1508 1505 1503 1502 1490 1491 1488 1490 1490 1488 1485 1484 1484 1486 1480 1476 1472 1469 1463 1463 1466 1469 1466 1468 1458 1460 1463 1463 1469 1446 1467 1447 1440 1440 1434 1435 1433 1436 1439
1520 1516 1513 1510 1509 1509 1508 1505 1503 1504 1492 1491 1488 1490 1488 1486 1485 1482 1483 1483 1478 1473 1477 1464 1465 1464 1466 1462 1459 1462 1456 1454 1454 1457 1458 1452 1460 1444 1436 1439 1431 1427 1426 1430 1432
1519 1515 1512 1509 1508 1508 1506 1504 1505 1499 1495 1490 1489 1487 1483 1482 1481 1480 1480 1481 1477 1473 1468 1465 1462 1464 1459 1456 1455 1455 1456 1454 1456 1455 1463 1448 1451 1443 1437 1430 1424 1420 1421 1425 1427
1518 1514 1511 1510 1511 1507 1506 1507 1496 1490 1493 1493 1490 1486 1483 1481 1478 1478 1474 1474 1473 1477 1464 1458 1450 1452 1458 1460 1453 1454 1458 1471 1473 1466 1465 1438 1443 1434 1427 1424 1422 1423 1421 1422 1425
1516 1513 1511 1510 1509 1508 1506 1502 1502 1495 1493 1492 1491 1486 1484 1483 1477 1477 1474 1474 1473 1472 1468 1466 1466 1452 1450 1454 1453 1448 1452 1463 1486 1482 1473 1449 1454 1439 1422 1419 1423 1424 1425 1425 1424
1515 1512 1511 1510 1509 1507 1508 1495 1491 1496 1496 1494 1489 1486 1483 1481 1483 1476 1475 1476 1476 1474 1482 1471 1461 1449 1448 1444 1444 1452 1461 1443 1461 1454 1463 1463 1451 1425 1421 1417 1418 1422 1423 1423 1425
1514 1512 1512 1509 1508 1507 1502 1500 1494 1498 1498 1495 1493 1490 1489 1485 1482 1478 1476 1476 1477 1475 1473 1468 1474 1444 1445 1444 1443 1444 1442 1456 1454 1481 1475 1458 1448 1437 1424 1418 1420 1422 1421 1422 1422
1514 1512 1509 1508 1508 1506 1494 1493 1496 1499 1499 1495 1492 1491 1488 1489 1485 1480 1478 1474 1478 1476 1471 1464 1466 1456 1443 1442 1440 1441 1444 1445 1442 1453 1469 1453 1438 1411 1416 1416 1422 1419 1422 1421 1420
1514 1508 1507 1507 1506 1502 1494 1498 1502 1496 1497 1495 1495 1491 1490 1489 1486 1483 1481 1478 1481 1478 1473 1468 1467 1466 1450 1436 1442 1439 1441 1440 1446 1452 1442 1440 1435 1406 1416 1418 1425 1422 1423 1424 1421
1514 1510 1507 1506 1497 1494 1499 1497 1498 1495 1494 1493 1491 1492 1491 1489 1493 1483 1480 1479 1481 1479 1476 1474 1464 1468 1452 1440 1440 1440 1442 1441 1440 1439 1447 1446 1434 1405 1418 1421 1429 1427 1426 1424 1424
1514 1504 1505 1506 1504 1499 1497 1494 1494 1497 1496 1495 1492 1492 1490 1487 1485 1486 1482 1478 1480 1479 1480 1479 1469 1471 1467 1450 1445 1451 1443 1443 1448 1447 1434 1425 1423 1411 1421 1430 1435 1433 1430 1428 1425
1514 1507 1508 1495 1500 1501 1502 1497 1493 1492 1495 1494 1490 1490 1490 1491 1484 1482 1479 1477 1477 1475 1475 1472 1477 1466 1456 1450 1448 1446 1444 1441 1442 1437 1445 1428 1425 1414 1434 1441 1442 1438 1434 1429 1428
1514 1510 1509 1504 1506 1503 1501 1495 1494 1491 1495 1489 1491 1490 1490 1490 1484 1487 1484 1483 1479 1475 1472 1472 1474 1464 1462 1451 1443 1445 1439 1436 1438 1436 1436 1431 1430 1435 1440 1441 1443 1438 1434 1434 1435
1512 1511 1511 1502 1501 1500 1492 1493 1493 1496 1493 1493 1494 1493 1488 1486 1491 1490 1486 1481 1478 1476 1476 1476 1471 1465 1462 1446 1443 1449 1433 1430 1437 1437 1442 1441 1438 1443 1439 1441 1444 1443 1442 1437 1438